Regional Weather Roundup
Issued by NWS Midland/Odessa, TX

Skip options and go directly to product.
Home | Oldest Version | Previous Version | Current Version | All | Text Only | Save Text | Print | Product List | Glossary Off

Skip product version selection by date and time.   

267
ASUS44 KMAF 051410
RWRMAF
MIDLAND AREA WEATHER ROUNDUP
NATIONAL WEATHER SERVICE MIDLAND TX
900 AM CDT SAT SEP 05 2015

...IN SOUTHWEST TEXAS AND SOUTHEAST NEW MEXICO...

CITY           SKY/WX    TMP DP  RH WIND       PRES   REMARKS
ALPINE         SUNNY     74  59  60 SW8       30.17R
ANDREWS        FAIR      74  64  72 S7        30.07R
ARTESIA        SUNNY     72  55  56 SE7       30.07R
BIG SPRING     SUNNY     75  67  76 SE14      30.06S
CARLSBAD       SUNNY     77  57  50 S7        30.04R
DRYDEN           N/A     78  71  79 VRB7      30.00R
FORT STOCKTON  SUNNY     76  67  73 S16       30.03R
GUAD PASS      SUNNY     73  54  51 NE15      30.17R
HOBBS          SUNNY     73  63  68 SE7       30.10R
MARFA          SUNNY     68  57  68 CALM      30.15S
MIDLAND AIRPK  SUNNY     77  67  72 SE10G17   30.05R
MIDLAND INTL   SUNNY     76  67  73 S15       30.04R
ODESSA         SUNNY     76  66  71 S10       30.05R
PECOS          SUNNY     77  66  68 E14       30.00R
PRESIDIO       FAIR      82  61  47 MISG      30.01R
SEMINOLE       SUNNY     73  57  58 CALM      30.09R
SNYDER         MOSUNNY   75  66  72 S12       30.05R
WINK           SUNNY     76  66  71 SE12      30.01R
$$
...OTHER STATIONS IN TEXAS...

CITY           SKY/WX    TMP DP  RH WIND       PRES   REMARKS
ABILENE        SUNNY     79  70  74 S14       30.03R
AMARILLO       SUNNY     71  58  63 S12       30.08R
AUSTIN         CLOUDY    80  75  84 S9        30.01R FOG
BROWNSVILLE    SUNNY     84  79  85 SE13      29.97R
CORPUS CHRISTI MOSUNNY   84  80  88 S8        29.97R
DALLAS FTW     MOSUNNY   82  73  74 S9        30.01R
DEL RIO        CLOUDY    80  72  76 E10       29.96R
EL PASO        PTSUNNY   77  55  46 N6        30.05R
HOUSTON INT    MOSUNNY   82  78  88 CALM      30.02R
LUBBOCK        MOSUNNY   76  60  57 SW9       30.07S
SAN ANGELO     SUNNY     80  70  71 S3        30.02R
SAN ANTONIO    PTSUNNY   83  75  77 S9        30.01R
WACO           MOSUNNY   81  74  79 S12       30.01S
WICHITA FALLS  NOT AVBL
$$
...OTHER LOCATIONS IN NEW MEXICO...

CITY           SKY/WX    TMP DP  RH WIND       PRES   REMARKS
ALAMAGORDO     PTSUNNY   70  55  60 CALM      30.09R
ALBUQUERQUE    PTSUNNY   64  59  83 N3        30.18R
CANNON AFB     SUNNY     72  56  57 SW9       30.12R
CLOVIS         SUNNY     72  55  56 SW10      30.13R
HOLLOMAN AFB   PTSUNNY   68  57  68 NE3       30.06R
ROSWELL        SUNNY     72  55  55 CALM      30.07R
RUIDOSO        PTSUNNY   59  55  88 NW3       30.27R
SANTA FE       MOSUNNY   58  55  90 N3        30.22R
TRUTH OR CONSE MOSUNNY   65  57  75 NW3       30.13R
TUCUMCARI      MOSUNNY   69  55  60 S6        30.08R
$$

USA.gov is the U.S. government's official web portal to all federal, state and local government web resources and services.